Weather History for LLET - February, 2013

Change the Weather History Date:

Saturday, February 2, 2013

  Actual Average Record
Temperature  
Mean Temperature 66 °F -  
Max Temperature 69 °F 70 °F 82 °F (2015)
Min Temperature 54 °F 53 °F 46 °F (1997)
Growing Degree Days 16 (Base 50)    
Moisture  
Dew Point 53 °F    
Average Humidity 58    
Maximum Humidity 77    
Minimum Humidity 32    
Precipitation  
Precipitation 0.00 in 0.01 in - ()
Sea Level Pressure  
Sea Level Pressure 30.17 in    
Wind  
Wind Speed 10 mph ()    
Max Wind Speed 114 mph    
Max Gust Speed -    
Visibility 6.9 miles    
Events      
Averages and records for this station are not official NWS values.
T = Trace of Precipitation, MM = Missing Value Source: Averaged Metar Reports

Daily Weather History Graph

Daily Weather History Graph

Search for Another Location

Airport or City:

Trip Planner

Search our weather history database for the weather conditions in past years. The results will help you decide how hot, cold, wet, or windy it might be!

Date:

Astronomy

Feb. 02, 2013 Rise Set
Actual Time 6:29 AM IST 5:18 PM IST
Civil Twilight 6:04 AM IST 5:43 PM IST
Nautical Twilight 5:35 AM IST 6:12 PM IST
Astronomical Twilight 5:07 AM IST 6:40 PM IST
Moon 11:33 PM IST (2/2) 9:59 AM IST (2/2)
Length of Visible Light 11h 39m
Length of Day
10h 49m
Waning Gibbous, 63% of the Moon is Illuminated
Feb 2
Waning Gibbous
Feb 3
Last Quarter
Feb 10
New
Feb 17
First Quarter
Feb 25
Full

Hourly Weather History & Observations

Time (IST) Temp. Dew Point Humidity Pressure Visibility Wind Dir Wind Speed Gust Speed Precip Events Conditions
2:00 AM 55 °F 45 °F 60% 30.08 in 12 mi West 2.3 mph - -   Mostly Cloudy
6:50 AM 62.6 °F 53.6 °F 72% 29.89 in 6.2 mi NE 10.4 mph - N/A   Scattered Clouds
7:20 AM 62.6 °F 55.4 °F 77% 29.89 in 6.2 mi North 9.2 mph - N/A   Scattered Clouds
7:50 AM 62.6 °F 55.4 °F 77% 30.18 in 6.2 mi North 10.4 mph - N/A   Scattered Clouds
8:00 AM 58 °F 46 °F 54% 30.19 in 12 mi NNE 2.3 mph - -   Partly Cloudy
8:20 AM 66.2 °F 57.2 °F 73% 30.18 in 6.2 mi North 12.7 mph - N/A   Partly Cloudy
8:50 AM 68.0 °F 59.0 °F 73% 30.18 in 6.2 mi ENE 12.7 mph - N/A   Scattered Clouds
9:20 AM 68.0 °F 59.0 °F 73% 30.18 in 6.2 mi East 11.5 mph - N/A   Mostly Cloudy
9:50 AM 69.8 °F 59.0 °F 68% 30.18 in 6.2 mi East 12.7 mph - N/A   Scattered Clouds
10:20 AM 71.6 °F 59.0 °F 64% 30.18 in 6.2 mi NNE 12.7 mph - N/A   Scattered Clouds
10:50 AM 71.6 °F 59.0 °F 64% 30.18 in 6.2 mi ENE 13.8 mph - N/A   Scattered Clouds
11:20 AM 71.6 °F 57.2 °F 60% 30.18 in 6.2 mi ENE 11.5 mph - N/A   Scattered Clouds
11:50 AM 73.4 °F 57.2 °F 57% 30.18 in 6.2 mi East 11.5 mph - N/A   Scattered Clouds
12:20 PM 73.4 °F 57.2 °F 57% 30.18 in 6.2 mi East 10.4 mph - N/A   Scattered Clouds
12:50 PM 73.4 °F 57.2 °F 57% 30.18 in 6.2 mi ENE 10.4 mph - N/A   Scattered Clouds
1:20 PM 73.4 °F 55.4 °F 53% 30.18 in 6.2 mi SW 12.7 mph - N/A   Scattered Clouds
1:50 PM 77.0 °F 55.4 °F 47% 30.18 in 6.2 mi SW 12.7 mph - N/A   Scattered Clouds
2:00 PM 67 °F 44 °F 32% 30.21 in 12 mi SSE 2.3 mph - -   Partly Cloudy
2:20 PM 75.2 °F 55.4 °F 50% 30.18 in 6.2 mi SW 12.7 mph - N/A   Scattered Clouds
2:50 PM 77.0 °F 55.4 °F 47% 30.21 in 6.2 mi SW 11.5 mph - N/A   Partly Cloudy
3:20 PM 68.0 °F 48.2 °F 49% 30.21 in 6.2 mi Variable 3.5 mph - N/A   Partly Cloudy
3:50 PM 68.0 °F 48.2 °F 49% 30.21 in 6.2 mi North 5.8 mph - N/A   Partly Cloudy
4:20 PM 68.0 °F 48.2 °F 49% 30.21 in 6.2 mi NNE 5.8 mph - N/A   Partly Cloudy
4:50 PM 66.2 °F 46.4 °F 49% 30.21 in 6.2 mi ENE 3.5 mph - N/A   Partly Cloudy
5:20 PM 66.2 °F 48.2 °F 52% 30.21 in 6.2 mi ENE 3.5 mph - N/A   Partly Cloudy
5:50 PM 64.4 °F 44.6 °F 49% 30.21 in 6.2 mi North 113.9 mph - N/A   Partly Cloudy
8:00 PM 59 °F 45 °F 50% 30.27 in - ENE 1.2 mph - -